Content
SEND FEEDBACK

Daily
Averages
Monthly
Summary
United States of America

ALEXANDRIA, MISSOURI


Home > North America > United States > Missouri
Elevation: 482 feet     Latitude: 40 16N     Longitude: 091 30W

WEATHER
 
SELECT A DAY
Number of Records: 413,580;   Date Range: 2/11/95 - 7/27/14
 
SHARE

PRINT THIS DATA

[ ← Previous Day ]
WEATHER ALMANAC - FEBRUARY 13, 2013
[ Next Day → ]
[ °C ]   °F
Weather ElementAverageHighLow
Temperature39.6 °F51.8 °F (3:15 pm)28.4 °F (6:55 am)
Dewpoint25.2 °F28.4 °F (7:35 pm)21.2 °F (12:35 am)
Humidity57.5 %74 % (6:55 am)38 % (3:15 pm)
Barometer29.81 in29.91 in (12:35 am)29.74 in (11:35 pm)
Wind Speed7.9 mph15 mph (2:15 pm)
Wind Gust17.3 mph (1:55 pm)
Weather ElementAverage
Visibility9.8 mi
Wind DirectionWSW (235.4 °)

Weather ElementTotal
Precipitation---
Heating Degree Days24.9 (Base 65)
Averaged from 71 records on February 13, 2013
WEATHER CONDITIONS BREAKOUT
WIND DIRECTION BREAKOUT
WEATHER BY HOUR - FEBRUARY 13, 2013
[ °C ]   °F
Local TimeTemperatureDewpointHumidityBarometerVisibilityWind DirectionWind SpeedGust SpeedPrecipitationEventsConditions
12:35 AM30.2 °F21.2 °F69 %29.91 in10.0 miSW (220°)5.8 mphClear
12:55 AM30.2 °F21.2 °F69 %29.91 in10.0 miSW (220°)5.8 mphClear
1:15 AM32.0 °F23.0 °F69 %29.90 in10.0 miSW (220°)5.8 mphClear
1:35 AM30.2 °F21.2 °F69 %29.89 in10.0 miSW (230°)5.8 mphClear
1:55 AM30.2 °F21.2 °F69 %29.89 in10.0 miSW (230°)5.8 mphClear
2:15 AM30.2 °F21.2 °F69 %29.88 in10.0 miSW (220°)5.8 mphClear
2:35 AM30.2 °F21.2 °F69 %29.87 in10.0 miSW (230°)6.9 mphClear
2:55 AM32.0 °F23.0 °F69 %29.86 in10.0 miWSW (240°)6.9 mphClear
3:15 AM32.0 °F23.0 °F69 %29.85 in10.0 miWSW (240°)8.1 mphClear
3:35 AM32.0 °F21.2 °F64 %29.85 in10.0 miSW (230°)6.9 mphClear
3:55 AM30.2 °F21.2 °F69 %29.85 in10.0 miSW (220°)5.8 mphClear
4:15 AM30.2 °F21.2 °F69 %29.84 in10.0 miSW (220°)6.9 mphClear
4:35 AM30.2 °F21.2 °F69 %29.83 in10.0 miSW (230°)5.8 mphClear
4:55 AM30.2 °F21.2 °F69 %29.83 in10.0 miSW (230°)5.8 mphClear
5:15 AM30.2 °F21.2 °F69 %29.83 in10.0 miSW (230°)6.9 mphClear
5:35 AM30.2 °F21.2 °F69 %29.83 in10.0 miWSW (240°)6.9 mphClear
5:55 AM30.2 °F21.2 °F69 %29.83 in10.0 miSW (230°)4.6 mphClear
6:15 AM30.2 °F21.2 °F69 %29.82 in10.0 miSW (230°)3.5 mphClear
6:35 AM30.2 °F21.2 °F69 %29.82 in10.0 miSW (230°)5.8 mphClear
6:55 AM28.4 °F21.2 °F74 %29.82 in10.0 miSW (230°)5.8 mphClear
7:15 AM28.4 °F21.2 °F74 %29.83 in7.0 miWSW (240°)5.8 mphClear
7:35 AM30.2 °F21.2 °F69 %29.83 in7.0 miWSW (250°)6.9 mphClear
7:55 AM32.0 °F21.2 °F64 %29.83 in7.0 miWSW (240°)5.8 mphClear
8:15 AM33.8 °F23.0 °F65 %29.83 in7.0 miWSW (240°)6.9 mphClear
8:35 AM33.8 °F24.8 °F70 %29.83 in10.0 miWSW (240°)6.9 mphClear
8:55 AM35.6 °F24.8 °F65 %29.83 in10.0 miWest (260°)8.1 mphClear
9:15 AM35.6 °F26.6 °F70 %29.83 in10.0 miWest (270°)9.2 mphClear
9:35 AM37.4 °F26.6 °F65 %29.83 in10.0 miWest (260°)8.1 mphClear
9:55 AM39.2 °F26.6 °F61 %29.83 in10.0 miWSW (250°)5.8 mphClear
10:15 AM39.2 °F26.6 °F61 %29.83 in10.0 miWSW (250°)6.9 mphClear
10:35 AM41.0 °F26.6 °F57 %29.83 in10.0 miWNW (290°)8.1 mphClear
10:55 AM42.8 °F26.6 °F53 %29.83 in10.0 miWest (270°)9.2 mphClear
11:15 AM42.8 °F26.6 °F53 %29.83 in10.0 miWest (270°)8.1 mphClear
11:35 AM44.6 °F26.6 °F49 %29.82 in10.0 miWest (280°)6.9 mphClear
11:55 AM46.4 °F26.6 °F46 %29.82 in10.0 miWSW (250°)9.2 mphClear
12:15 PM46.4 °F26.6 °F46 %29.81 in10.0 miWSW (250°)10.4 mphClear
12:35 PM46.4 °F26.6 °F46 %29.81 in10.0 miWSW (250°)8.1 mphClear
12:55 PM48.2 °F26.6 °F43 %29.80 in10.0 miWest (260°)9.2 mphClear
1:15 PM48.2 °F26.6 °F43 %29.79 in10.0 miWest (270°)12.7 mphClear
1:35 PM48.2 °F26.6 °F43 %29.79 in10.0 miWest (270°)10.4 mphClear
1:55 PM50.0 °F26.6 °F40 %29.78 in10.0 miWest (260°)10.4 mph17.3 mphClear
2:15 PM48.2 °F26.6 °F43 %29.78 in10.0 miWest (260°)15.0 mphClear
2:35 PM50.0 °F26.6 °F40 %29.78 in10.0 miWSW (250°)11.5 mphClear
2:55 PM50.0 °F26.6 °F40 %29.78 in10.0 miWSW (250°)10.4 mphClear
3:15 PM51.8 °F26.6 °F38 %29.78 in10.0 miWSW (240°)13.8 mphClear
3:35 PM51.8 °F26.6 °F38 %29.78 in10.0 miWSW (250°)12.7 mphClear
3:55 PM50.0 °F26.6 °F40 %29.78 in10.0 miWest (270°)9.2 mphClear
4:15 PM50.0 °F26.6 °F40 %29.78 in10.0 miWest (260°)10.4 mphClear
4:35 PM50.0 °F26.6 °F40 %29.78 in10.0 miWest (260°)12.7 mphClear
4:55 PM48.2 °F26.6 °F43 %29.78 in10.0 miWSW (250°)9.2 mphClear
5:15 PM46.4 °F26.6 °F46 %29.78 in10.0 miWSW (250°)5.8 mphClear
5:35 PM46.4 °F26.6 °F46 %29.78 in10.0 miWSW (240°)4.6 mphClear
5:55 PM44.6 °F26.6 °F49 %29.78 in10.0 miSW (220°)4.6 mphClear
6:15 PM44.6 °F26.6 °F49 %29.78 in10.0 miSSW (210°)3.5 mphClear
6:35 PM42.8 °F26.6 °F53 %29.78 in10.0 miSSW (210°)4.6 mphClear
6:55 PM42.8 °F26.6 °F53 %29.79 in10.0 miSW (220°)5.8 mphClear
7:15 PM42.8 °F26.6 °F53 %29.79 in10.0 miSSW (210°)5.8 mphClear
7:35 PM41.0 °F28.4 °F61 %29.79 in10.0 miSSW (210°)6.9 mphClear
7:55 PM42.8 °F28.4 °F57 %29.78 in10.0 miSSW (200°)6.9 mphClear
8:15 PM41.0 °F28.4 °F61 %29.78 in10.0 miSSW (200°)6.9 mphClear
8:35 PM42.8 °F28.4 °F57 %29.77 in10.0 miSSW (200°)8.1 mphClear
8:55 PM42.8 °F28.4 °F57 %29.77 in10.0 miSSW (200°)9.2 mphClear
9:15 PM42.8 °F28.4 °F57 %29.77 in10.0 miSSW (210°)8.1 mphClear
9:35 PM42.8 °F28.4 °F57 %29.76 in10.0 miSSW (200°)8.1 mphClear
9:55 PM42.8 °F28.4 °F57 %29.76 in10.0 miSSW (200°)9.2 mphMostly Cloudy
10:15 PM42.8 °F28.4 °F57 %29.76 in10.0 miSSW (200°)12.7 mphOvercast
10:35 PM42.8 °F28.4 °F57 %29.76 in10.0 miSSW (210°)9.2 mphMostly Cloudy
10:55 PM42.8 °F28.4 °F57 %29.76 in10.0 miSSW (210°)11.5 mphMostly Cloudy
11:15 PM42.8 °F28.4 °F57 %29.75 in10.0 miSSW (210°)9.2 mphOvercast
11:35 PM42.8 °F28.4 °F57 %29.74 in10.0 miSSW (210°)10.4 mphScattered Clouds
11:55 PM41.0 °F28.4 °F61 %29.74 in10.0 miSSW (210°)10.4 mphClear
Hourly data recorded from KEOK, located miles away from Alexandria, Missouri







STORIES FROM OUR PARTNERS